Weather History for Thermopolis, WY

Change the Weather History Date:

Tuesday, March 19, 2013

  Actual Average (KWRL) Record (KWRL)
Temperature  
Mean Temperature 21 °F 38 °F  
Max Temperature 28 °F 52 °F 76 °F (2004)
Min Temperature 14 °F 24 °F -8 °F (1965)
Degree Days  
Heating Degree Days 44 27  
Month to date heating degree days 583  
Since 1 July heating degree days 6584  
Cooling Degree Days 0 0  
Month to date cooling degree days 0  
Year to date cooling degree days 0  
Moisture  
Dew Point 13 °F    
Average Humidity 72    
Maximum Humidity 100    
Minimum Humidity 43    
Precipitation  
Precipitation 0.00 in 0.02 in 0.10 in (2006)
Month to date precipitation 0.26  
Year to date precipitation 0.68  
Sea Level Pressure  
Sea Level Pressure 30.13 in    
Wind  
Wind Speed 16 mph (NW)    
Max Wind Speed 28 mph    
Max Gust Speed 24 mph    
Visibility 8 miles    
Events Fog , Snow    
T = Trace of Precipitation, MM = Missing Value Source: NWS Daily Summary

Daily Weather History Graph

Daily Weather History Graph

Search for Another Location

Airport:

Trip Planner

Search our weather history database for the weather conditions in past years. The results will help you decide how hot, cold, wet, or windy it might be!

Date:

Astronomy

Mar. 19, 2013 Rise Set
Actual Time 7:17 AM MDT 7:24 PM MDT
Civil Twilight 6:48 AM MDT 7:53 PM MDT
Nautical Twilight 6:15 AM MDT 8:26 PM MDT
Astronomical Twilight 5:41 AM MDT 9:00 PM MDT
Moon 12:00 PM MDT (3/19) 2:23 AM MDT (3/19)
Length of Visible Light 13h 04m
Length of Day
12h 07m
Waxing Crescent, 50% of the Moon is Illuminated
Mar 19
Waxing Crescent
Mar 27
Full
Apr 2
Last Quarter
Apr 10
New
Apr 18
First Quarter

Hourly Weather History & Observations

Time (MDT) Temp. Windchill Dew Point Humidity Pressure Visibility Wind Dir Wind Speed Gust Speed Precip Events Conditions
12:15 AM 19.4 °F 1.8 °F 17.6 °F 93% 29.93 in 0.2 mi NW 25.3 mph - N/A Snow Snow
12:35 AM 19.4 °F 1.1 °F 17.6 °F 93% 29.92 in 0.2 mi NNW 27.6 mph - N/A Snow Snow
12:55 AM 19.4 °F 1.8 °F 17.6 °F 93% 29.93 in 0.2 mi NNW 25.3 mph - N/A Snow Snow
1:15 AM 19.4 °F 2.1 °F 17.6 °F 93% 29.93 in - NNW 24.2 mph - N/A   Overcast
1:35 AM 19.4 °F 1.8 °F 17.6 °F 93% 29.95 in - NW 25.3 mph - N/A   Overcast
1:55 AM 19.4 °F 2.5 °F 17.6 °F 93% 29.96 in - NW 23.0 mph - N/A   Overcast
2:15 AM 19.4 °F 2.1 °F 17.6 °F 93% 29.97 in - WNW 24.2 mph - N/A   Overcast
2:35 AM 17.6 °F 2.7 °F 15.8 °F 93% 30.00 in - WNW 16.1 mph - N/A   Unknown
2:55 AM 17.6 °F 5.0 °F 15.8 °F 93% 30.00 in - WNW 11.5 mph - N/A   Unknown
3:15 AM 17.6 °F 4.3 °F 15.8 °F 93% 30.01 in - WNW 12.7 mph - N/A   Unknown
3:35 AM 17.6 °F 7.3 °F 15.8 °F 93% 30.02 in - WNW 8.1 mph - N/A   Unknown
3:55 AM 17.6 °F 12.3 °F 15.8 °F 93% 30.02 in - SW 3.5 mph - N/A   Unknown
4:15 AM 17.6 °F 7.3 °F 15.8 °F 93% 30.02 in 10.0 mi SSE 8.1 mph - N/A   Clear
4:35 AM 17.6 °F 5.7 °F 15.8 °F 93% 30.02 in 1.2 mi South 10.4 mph 17.3 mph N/A   Scattered Clouds
4:55 AM 17.6 °F 4.3 °F 15.8 °F 93% 30.02 in 10.0 mi South 12.7 mph - N/A   Scattered Clouds
5:15 AM 17.6 °F 2.2 °F 14.0 °F 86% 30.01 in 10.0 mi SW 17.3 mph 21.9 mph N/A   Clear
5:35 AM 17.6 °F 2.7 °F 14.0 °F 86% 30.02 in 10.0 mi SSW 16.1 mph 20.7 mph N/A   Clear
5:55 AM 19.4 °F 6.6 °F 12.2 °F 74% 30.03 in 10.0 mi SSW 12.7 mph - N/A   Clear
6:15 AM 19.4 °F 4.5 °F 10.4 °F 68% 30.03 in 10.0 mi SW 17.3 mph 21.9 mph N/A   Clear
6:35 AM 19.4 °F 5.0 °F 8.6 °F 63% 30.04 in 10.0 mi WSW 16.1 mph 24.2 mph N/A   Clear
6:55 AM 19.4 °F 3.6 °F 6.8 °F 58% 30.05 in 10.0 mi WSW 19.6 mph - N/A   Clear
7:15 AM 17.6 °F 2.7 °F 8.6 °F 68% 30.07 in 10.0 mi NW 16.1 mph - N/A   Clear
7:35 AM 15.8 °F 1.4 °F 10.4 °F 79% 30.08 in 10.0 mi NW 13.8 mph - N/A   Clear
7:55 AM 14.0 °F -1.4 °F 14.0 °F 100% 30.10 in 0.2 mi NNW 15.0 mph - N/A Fog Light Freezing Fog
8:15 AM 15.8 °F 0.3 °F 14.0 °F 93% 30.10 in 0.2 mi NNW 16.1 mph - N/A Fog Light Freezing Fog
8:35 AM 17.6 °F 3.7 °F 15.8 °F 93% 30.11 in 0.2 mi North 13.8 mph - N/A Fog Light Freezing Fog
8:55 AM 17.6 °F 5.0 °F 15.8 °F 93% 30.12 in 0.2 mi North 11.5 mph - N/A Fog Light Freezing Fog
9:15 AM 17.6 °F 7.3 °F 14.0 °F 86% 30.13 in 0.2 mi NNW 8.1 mph - N/A Fog Light Freezing Fog
9:35 AM 17.6 °F 8.2 °F 15.8 °F 93% 30.13 in 10.0 mi NNW 6.9 mph - N/A   Scattered Clouds
10:15 AM 17.6 °F 6.4 °F 15.8 °F 93% 30.15 in 10.0 mi North 9.2 mph - N/A   Clear
10:35 AM 19.4 °F 7.9 °F 15.8 °F 86% 30.15 in 10.0 mi North 10.4 mph - N/A   Clear
10:55 AM 19.4 °F 9.5 °F 15.8 °F 86% 30.15 in 10.0 mi North 8.1 mph - N/A   Clear
11:15 AM 21.2 °F 14.9 °F 14.0 °F 74% 30.16 in 10.0 mi North 4.6 mph - N/A   Clear
11:35 AM 21.2 °F - 14.0 °F 74% 30.17 in 10.0 mi Calm Calm - N/A   Clear
11:55 AM 21.2 °F - 12.2 °F 68% 30.18 in 10.0 mi Calm Calm - N/A   Clear
12:15 PM 23.0 °F 17.0 °F 10.4 °F 59% 30.18 in 10.0 mi North 4.6 mph - N/A   Clear
12:35 PM 23.0 °F 13.9 °F 10.4 °F 59% 30.18 in 10.0 mi North 8.1 mph - N/A   Clear
12:55 PM 23.0 °F 17.0 °F 10.4 °F 59% 30.18 in 10.0 mi NNW 4.6 mph - N/A   Clear
1:15 PM 23.0 °F 13.9 °F 8.6 °F 54% 30.18 in 10.0 mi NNW 8.1 mph - N/A   Clear
1:35 PM 23.0 °F 12.4 °F 14.0 °F 68% 30.18 in 10.0 mi NNW 10.4 mph - N/A   Clear
2:15 PM 24.8 °F 15.3 °F 10.4 °F 54% 30.18 in 10.0 mi NNW 9.2 mph - N/A   Clear
2:35 PM 24.8 °F 13.4 °F 12.2 °F 59% 30.18 in 10.0 mi NNW 12.7 mph - N/A   Clear
3:15 PM 26.6 °F 15.7 °F 8.6 °F 47% 30.18 in 10.0 mi NNW 12.7 mph - N/A   Clear
3:35 PM 26.6 °F 13.8 °F 6.8 °F 43% 30.18 in 10.0 mi NW 17.3 mph - N/A   Clear
3:55 PM 26.6 °F 13.8 °F 8.6 °F 47% 30.18 in 10.0 mi NW 17.3 mph - N/A   Clear
4:15 PM 26.6 °F 13.8 °F 10.4 °F 51% 30.19 in 10.0 mi NW 17.3 mph - N/A   Clear
4:35 PM 26.6 °F 15.7 °F 10.4 °F 51% 30.20 in 10.0 mi NNW 12.7 mph - N/A   Clear
4:55 PM 26.6 °F 15.2 °F 12.2 °F 55% 30.21 in 10.0 mi NNW 13.8 mph - N/A   Clear
5:15 PM 26.6 °F 13.8 °F 14.0 °F 59% 30.20 in 10.0 mi NW 17.3 mph - N/A   Clear
5:35 PM 26.6 °F 13.8 °F 14.0 °F 59% 30.21 in 10.0 mi NNW 17.3 mph - N/A   Clear
5:55 PM 26.6 °F 14.7 °F 14.0 °F 59% 30.21 in 10.0 mi NNW 15.0 mph - N/A   Clear
6:15 PM 26.6 °F 16.2 °F 14.0 °F 59% 30.22 in 10.0 mi NW 11.5 mph - N/A   Clear
6:35 PM 26.6 °F 14.7 °F 14.0 °F 59% 30.21 in 10.0 mi NNW 15.0 mph - N/A   Clear
6:55 PM 26.6 °F 15.2 °F 14.0 °F 59% 30.22 in 10.0 mi NNW 13.8 mph - N/A   Clear
7:15 PM 26.6 °F 14.7 °F 14.0 °F 59% 30.22 in 10.0 mi NNW 15.0 mph - N/A   Clear
7:35 PM 24.8 °F 13.4 °F 14.0 °F 64% 30.22 in 10.0 mi North 12.7 mph - N/A   Clear
7:55 PM 26.6 °F 18.2 °F 14.0 °F 59% 30.23 in 10.0 mi North 8.1 mph - N/A   Clear
8:15 PM 26.6 °F 18.2 °F 14.0 °F 59% 30.23 in 10.0 mi NNW 8.1 mph - N/A   Clear
8:35 PM 26.6 °F 20.0 °F 14.0 °F 59% 30.24 in 10.0 mi NNW 5.8 mph - N/A   Clear
8:55 PM 26.6 °F - 14.0 °F 59% 30.24 in 10.0 mi Calm Calm - N/A   Clear
9:15 PM 28.4 °F - 12.2 °F 51% 30.24 in 10.0 mi Calm Calm - N/A   Clear
9:35 PM 28.4 °F 19.7 °F 8.6 °F 43% 30.24 in 10.0 mi SE 9.2 mph - N/A   Clear
9:55 PM 23.0 °F 12.4 °F 14.0 °F 68% 30.24 in 10.0 mi SE 10.4 mph - N/A   Clear
10:15 PM 24.8 °F 11.9 °F 12.2 °F 59% 30.24 in 10.0 mi SE 16.1 mph - N/A   Clear
10:35 PM 24.8 °F 13.4 °F 12.2 °F 59% 30.23 in 10.0 mi SE 12.7 mph - N/A   Clear
10:55 PM 23.0 °F 11.7 °F 12.2 °F 63% 30.24 in 10.0 mi SE 11.5 mph - N/A   Clear
11:15 PM 24.8 °F 15.3 °F 12.2 °F 59% 30.24 in 10.0 mi SE 9.2 mph - N/A   Clear
11:35 PM 24.8 °F 14.6 °F 12.2 °F 59% 30.24 in 10.0 mi SE 10.4 mph - N/A   Clear
11:55 PM 24.8 °F 12.9 °F 12.2 °F 59% 30.23 in 10.0 mi SE 13.8 mph - N/A   Clear